TimeEDT,TemperatureF,Dew PointF,Humidity,Sea Level PressureIn,VisibilityMPH,Wind Direction,Wind SpeedMPH,Gust SpeedMPH,PrecipitationIn,Events,Conditions,WindDirDegrees,DateUTC
12:54 AM,64.0,60.1,87,30.09,6.0,Calm,Calm,-,N/A,,Clear,0,2013-10-03 04:54:00
1:54 AM,63.0,60.1,90,30.09,7.0,Calm,Calm,-,N/A,,Clear,0,2013-10-03 05:54:00
2:28 AM,62.6,59.0,88,30.09,2.5,Calm,Calm,-,N/A,,Clear,0,2013-10-03 06:28:00
2:35 AM,62.6,59.0,88,30.08,4.0,Calm,Calm,-,N/A,,Clear,0,2013-10-03 06:35:00
2:54 AM,63.0,59.0,87,30.08,4.0,Calm,Calm,-,N/A,,Clear,0,2013-10-03 06:54:00
3:07 AM,62.6,59.0,88,30.08,1.5,Calm,Calm,-,N/A,,Clear,0,2013-10-03 07:07:00
3:15 AM,62.6,59.0,88,30.08,0.5,Calm,Calm,-,N/A,Fog,Fog,0,2013-10-03 07:15:00
3:54 AM,62.1,59.0,90,30.08,0.2,Calm,Calm,-,N/A,Fog,Fog,0,2013-10-03 07:54:00
4:33 AM,60.8,57.2,88,30.08,0.5,Calm,Calm,-,N/A,Fog,Fog,0,2013-10-03 08:33:00
4:44 AM,60.8,57.2,88,30.08,0.2,Calm,Calm,-,N/A,Fog,Fog,0,2013-10-03 08:44:00
4:54 AM,62.1,57.9,86,30.08,0.2,Calm,Calm,-,N/A,Fog,Fog,0,2013-10-03 08:54:00
5:03 AM,60.8,57.2,88,30.08,0.2,Calm,Calm,-,N/A,Fog,Fog,0,2013-10-03 09:03:00
5:13 AM,60.8,57.2,88,30.08,1.0,Calm,Calm,-,N/A,,Mist,0,2013-10-03 09:13:00
5:20 AM,60.8,57.2,88,30.09,1.8,Calm,Calm,-,N/A,,Partly Cloudy,0,2013-10-03 09:20:00
5:24 AM,62.6,57.2,82,30.09,4.0,Calm,Calm,-,N/A,,Partly Cloudy,0,2013-10-03 09:24:00
5:54 AM,62.1,57.9,86,30.09,7.0,Calm,Calm,-,N/A,,Clear,0,2013-10-03 09:54:00
6:54 AM,62.1,57.9,86,30.10,8.0,Calm,Calm,-,0.01,,Clear,0,2013-10-03 10:54:00
7:54 AM,63.0,60.1,90,30.11,8.0,Calm,Calm,-,N/A,,Clear,0,2013-10-03 11:54:00
8:54 AM,71.1,64.0,78,30.12,8.0,WSW,3.5,-,0.00,,Clear,240,2013-10-03 12:54:00
9:54 AM,78.1,63.0,60,30.12,10.0,Calm,Calm,-,N/A,,Clear,0,2013-10-03 13:54:00
10:54 AM,82.9,63.0,51,30.12,10.0,Calm,Calm,-,N/A,,Clear,0,2013-10-03 14:54:00
11:54 AM,84.0,61.0,46,30.12,10.0,WSW,5.8,-,N/A,,Clear,250,2013-10-03 15:54:00
12:54 PM,87.1,59.0,39,30.10,10.0,WSW,3.5,-,0.00,,Clear,250,2013-10-03 16:54:00
1:54 PM,84.9,60.1,43,30.09,10.0,West,5.8,-,N/A,,Clear,260,2013-10-03 17:54:00
2:54 PM,87.1,61.0,41,30.08,10.0,West,9.2,-,N/A,,Clear,280,2013-10-03 18:54:00
3:54 PM,84.9,61.0,44,30.07,10.0,WSW,6.9,-,N/A,,Clear,240,2013-10-03 19:54:00
4:54 PM,86.0,60.1,41,30.06,10.0,SSW,5.8,-,N/A,,Clear,210,2013-10-03 20:54:00
5:54 PM,82.9,61.0,47,30.06,10.0,SSW,4.6,-,N/A,,Clear,210,2013-10-03 21:54:00
6:54 PM,77.0,64.0,64,30.07,10.0,Calm,Calm,-,N/A,,Clear,0,2013-10-03 22:54:00
7:54 PM,72.0,63.0,73,30.08,10.0,Calm,Calm,-,N/A,,Clear,0,2013-10-03 23:54:00
8:54 PM,70.0,64.0,81,30.09,10.0,Calm,Calm,-,N/A,,Clear,0,2013-10-04 00:54:00
9:54 PM,70.0,64.0,81,30.09,10.0,Calm,Calm,-,N/A,,Clear,0,2013-10-04 01:54:00